User: anonymous   Login
Location: Unspecified
(0.0000°N, 0.0000°E)
Time: 10:18:57
(UTC+00:00)
Language:

SES 6 - Orbit

View from above orbital plane
View from above orbital plane
View from above satellite
View from above satellite

Ground track
Ground track

The orbit data is extracted from the following two-line orbital elements,

1 39172U 13026A   16236.17519473 -.00000283  00000-0  00000+0 0  9992
2 39172   0.0634 292.7808 0002131 212.0272 209.6536  1.00271746 11782
Epoch (UTC): 23 August 2016 04:12:16
Eccentricity: 0.0002131
inclination: 0.0634°
perigee height: 35777 km
apogee height: 35795 km
right ascension of ascending node: 292.7808°
argument of perigee: 212.0272°
revolutions per day: 1.00271746
mean anomaly at epoch: 209.6536°
orbit number at epoch: 1178

The dashed part of the orbit path shows where the satellite is in the earth's shadow,  

DLR